Tracking 25701 objects as of 4-Jul-2022
HD Live streaming from Space Station
objects crossing your sky now

FENGYUN 1C DEB

Track FENGYUN 1C DEB now!
10-day predictions


NORAD ID: 36710
Int'l Code: 1999-025EAG
Perigee: 725.4 km
Apogee: 848.3 km
Inclination: 98.5 °
Period: 100.4 minutes
Semi major axis: 7157 km
RCS: 0.0087 m2 (small)
Launch date: May 10, 1999
Source: People's Republic of China (PRC)
Launch site: Taiyaun Space Center, China (TSC)

Note: This is SATELLITE DEBRIS
aabbcc
Your satellite tracking list
Your tracking list is empty




NASA's NSSDC Master Catalog

Two Line Element Set (TLE):
1 36710U 99025EAG 22181.96103627  .00000957  00000-0  34683-3 0  9998
2 36710  98.5002 240.3461 0085872   7.3563 352.8860 14.33596114468048
Source of the keplerian elements: AFSPC